EXS419 EGNM-LEMH

Flight info

Callsign EXS419
Flight time 2h 20m
Altitude 37000
Route POL DCT MCT DCT LISTO L612 HON N859 DIGUT UN859 SOPIL DCT BALAN DCT EVPOK DCT NARAK DCT GAI DCT LOMRA DCT ROCAN DCT GEANT DCT SARGO
Aircraft B738/M-SDE2E3FGHIRWXY/LB1

Departure

Time 2026-04-18 05:07
Airport Leeds Bradford Airport (EGNM)

Arrival

Time 2026-04-18 07:28
Airport Menorca Airport (LEMH)
Time Latitude Longitude Altitude Speed Heading
2026-04-18 04:56 53.86874 -1.65278 664 ft 0 kts
2026-04-18 04:58 53.86873 -1.65279 664 ft 1 kts
2026-04-18 04:58 53.86848 -1.65280 663 ft 4 kts
2026-04-18 04:59 53.86828 -1.65272 661 ft 4 kts 295°
2026-04-18 04:59 53.86825 -1.65257 661 ft 4 kts 271°
2026-04-18 04:59 53.86825 -1.65301 659 ft 4 kts 271°
2026-04-18 04:59 53.86825 -1.65310 661 ft 1 kts 271°
2026-04-18 05:02 53.86825 -1.65311 660 ft 0 kts 271°
2026-04-18 05:02 53.86826 -1.65329 658 ft 3 kts 271°
2026-04-18 05:03 53.86822 -1.65377 661 ft 6 kts 251°
2026-04-18 05:03 53.86774 -1.65414 660 ft 11 kts 182°
2026-04-18 05:03 53.86678 -1.65422 660 ft 16 kts 184°
2026-04-18 05:03 53.86579 -1.65431 664 ft 16 kts 182°
2026-04-18 05:04 53.86470 -1.65443 669 ft 16 kts 184°
2026-04-18 05:04 53.86364 -1.65455 677 ft 15 kts 182°
2026-04-18 05:04 53.86261 -1.65463 679 ft 15 kts 183°
2026-04-18 05:04 53.86161 -1.65395 680 ft 17 kts 139°
2026-04-18 05:05 53.86055 -1.65238 675 ft 24 kts 139°
2026-04-18 05:05 53.85945 -1.65063 668 ft 15 kts 135°
2026-04-18 05:05 53.85900 -1.64915 662 ft 10 kts 135°
2026-04-18 05:05 53.85877 -1.64929 663 ft 5 kts 256°
2026-04-18 05:06 53.85895 -1.64987 662 ft 4 kts 317°
2026-04-18 05:06 53.85909 -1.65007 663 ft 3 kts 317°
2026-04-18 05:06 53.85922 -1.65027 665 ft 2 kts 317°
2026-04-18 05:06 53.85937 -1.65051 667 ft 6 kts 317°
2026-04-18 05:07 53.86155 -1.65389 680 ft 81 kts 318°
2026-04-18 05:07 53.86764 -1.66318 667 ft 151 kts 317°
2026-04-18 05:07 53.87608 -1.67615 1105 ft 174 kts 315°
2026-04-18 05:07 53.88555 -1.68921 2067 ft 184 kts 317°
2026-04-18 05:08 53.89524 -1.70316 2960 ft 184 kts 306°
2026-04-18 05:08 53.90293 -1.72119 3223 ft 202 kts 289°
2026-04-18 05:08 53.90280 -1.74528 3599 ft 212 kts 248°
2026-04-18 05:08 53.89696 -1.76903 4002 ft 228 kts 256°
2026-04-18 05:09 53.89233 -1.79534 4636 ft 238 kts 249°
2026-04-18 05:09 53.88405 -1.81997 5454 ft 243 kts 236°
2026-04-18 05:09 53.87347 -1.84243 6320 ft 246 kts 232°
2026-04-18 05:09 53.86234 -1.86466 7129 ft 249 kts 232°
2026-04-18 05:10 53.85108 -1.88704 7933 ft 251 kts 231°
2026-04-18 05:10 53.83975 -1.90974 8740 ft 253 kts 231°
2026-04-18 05:10 53.82838 -1.93267 9562 ft 255 kts 231°
2026-04-18 05:10 53.81695 -1.95576 10334 ft 258 kts 231°
2026-04-18 05:11 53.80501 -1.97990 10635 ft 279 kts 230°
2026-04-18 05:11 53.79212 -2.00598 10827 ft 300 kts 230°
2026-04-18 05:11 53.77822 -2.03403 11029 ft 321 kts 230°
2026-04-18 05:11 53.76361 -2.06337 11566 ft 329 kts 229°
2026-04-18 05:12 53.74646 -2.08910 12318 ft 332 kts 216°
2026-04-18 05:12 53.72633 -2.10834 13152 ft 334 kts 207°
2026-04-18 05:12 53.70416 -2.12075 13892 ft 338 kts 197°
2026-04-18 05:12 53.68122 -2.13013 14559 ft 340 kts 197°
2026-04-18 05:13 53.65812 -2.13931 15245 ft 342 kts 197°
2026-04-18 05:13 53.63487 -2.14856 15910 ft 344 kts 197°
2026-04-18 05:13 53.61156 -2.15794 16581 ft 346 kts 197°
2026-04-18 05:13 53.58815 -2.16745 17225 ft 348 kts 197°
2026-04-18 05:14 53.56451 -2.17711 17856 ft 350 kts 197°
2026-04-18 05:14 53.54081 -2.18682 18497 ft 352 kts 197°
2026-04-18 05:14 53.51693 -2.19662 19044 ft 354 kts 197°
2026-04-18 05:14 53.49292 -2.20646 19564 ft 357 kts 197°
2026-04-18 05:15 53.46902 -2.21626 20068 ft 360 kts 197°
2026-04-18 05:15 53.44460 -2.22626 20583 ft 362 kts 197°
2026-04-18 05:15 53.41975 -2.23642 21094 ft 365 kts 197°
2026-04-18 05:15 53.39534 -2.24638 21582 ft 367 kts 197°
2026-04-18 05:16 53.36895 -2.25455 22065 ft 374 kts 190°
2026-04-18 05:16 53.34363 -2.25603 22525 ft 380 kts 184°
2026-04-18 05:16 53.31701 -2.25128 22981 ft 389 kts 176°
2026-04-18 05:16 53.29022 -2.24306 23437 ft 392 kts 176°
2026-04-18 05:17 53.26335 -2.23474 23848 ft 395 kts 176°
2026-04-18 05:17 53.23624 -2.22649 24206 ft 397 kts 176°
2026-04-18 05:17 53.20890 -2.21835 24513 ft 401 kts 176°
2026-04-18 05:17 53.18168 -2.21035 24821 ft 404 kts 176°
2026-04-18 05:18 53.15361 -2.20192 25181 ft 408 kts 175°
2026-04-18 05:18 53.12607 -2.18879 25526 ft 418 kts 165°
2026-04-18 05:18 53.09941 -2.17021 25863 ft 422 kts 164°
2026-04-18 05:18 53.07233 -2.15103 26169 ft 425 kts 164°
2026-04-18 05:19 53.04508 -2.13183 26493 ft 427 kts 164°
2026-04-18 05:19 53.01764 -2.11263 26809 ft 429 kts 164°
2026-04-18 05:19 52.98995 -2.09340 27117 ft 432 kts 164°
2026-04-18 05:19 52.96214 -2.07419 27346 ft 435 kts 165°
2026-04-18 05:20 52.93414 -2.05492 27612 ft 437 kts 165°
2026-04-18 05:20 52.90593 -2.03556 27914 ft 439 kts 165°
2026-04-18 05:20 52.87764 -2.01617 28162 ft 441 kts 165°
2026-04-18 05:20 52.84926 -1.99674 28559 ft 441 kts 165°
2026-04-18 05:21 52.82100 -1.97739 29049 ft 438 kts 165°
2026-04-18 05:21 52.79290 -1.95817 29484 ft 437 kts 165°
2026-04-18 05:21 52.76476 -1.93898 29846 ft 437 kts 165°
2026-04-18 05:21 52.73669 -1.91988 30170 ft 437 kts 165°
2026-04-18 05:22 52.70847 -1.90072 30428 ft 439 kts 165°
2026-04-18 05:22 52.68027 -1.88159 30684 ft 439 kts 165°
2026-04-18 05:22 52.65200 -1.86243 31002 ft 438 kts 165°
2026-04-18 05:22 52.62378 -1.84332 31307 ft 438 kts 165°
2026-04-18 05:23 52.59558 -1.82426 31571 ft 439 kts 165°
2026-04-18 05:23 52.56727 -1.80515 31836 ft 439 kts 165°
2026-04-18 05:23 52.53902 -1.78611 32123 ft 439 kts 165°
2026-04-18 05:23 52.51079 -1.76710 32395 ft 439 kts 165°
2026-04-18 05:24 52.48255 -1.74811 32636 ft 439 kts 165°
2026-04-18 05:24 52.45415 -1.72906 32857 ft 441 kts 165°
2026-04-18 05:24 52.42580 -1.71004 33131 ft 441 kts 165°
2026-04-18 05:24 52.39735 -1.69098 33429 ft 440 kts 165°
2026-04-18 05:25 52.36944 -1.67232 33687 ft 440 kts 165°
2026-04-18 05:25 52.34050 -1.65422 33928 ft 438 kts 168°
2026-04-18 05:25 52.31168 -1.63856 34175 ft 436 kts 169°
2026-04-18 05:25 52.28311 -1.62394 34398 ft 435 kts 169°
2026-04-18 05:26 52.25422 -1.60938 34569 ft 435 kts 170°
2026-04-18 05:26 52.22526 -1.59474 34747 ft 436 kts 169°
2026-04-18 05:26 52.19620 -1.57991 34939 ft 437 kts 169°
2026-04-18 05:26 52.16724 -1.56501 35159 ft 436 kts 169°
2026-04-18 05:27 52.13833 -1.55005 35365 ft 436 kts 169°
2026-04-18 05:27 52.10941 -1.53506 35534 ft 437 kts 169°
2026-04-18 05:27 52.08038 -1.52002 35663 ft 439 kts 169°
2026-04-18 05:27 52.05120 -1.50494 35443 ft 442 kts 169°
2026-04-18 05:28 52.02196 -1.48983 35235 ft 439 kts 169°
2026-04-18 05:28 51.99304 -1.47486 35195 ft 434 kts 169°
2026-04-18 05:28 51.93571 -1.44532 35184 ft 432 kts 169°
2026-04-18 05:29 51.87824 -1.41587 35187 ft 435 kts 169°
2026-04-18 05:29 51.82048 -1.38630 35189 ft 437 kts 169°
2026-04-18 05:30 51.76245 -1.35667 35183 ft 437 kts 169°
2026-04-18 05:30 51.70422 -1.32729 35188 ft 438 kts 169°
2026-04-18 05:31 51.64600 -1.29801 35186 ft 439 kts 169°
2026-04-18 05:31 51.58779 -1.26850 35187 ft 438 kts 169°
2026-04-18 05:32 51.52964 -1.23901 35181 ft 437 kts 169°
2026-04-18 05:32 51.47203 -1.20708 35183 ft 443 kts 162°
2026-04-18 05:33 51.41633 -1.16427 35191 ft 443 kts 162°
2026-04-18 05:33 51.36053 -1.12277 35205 ft 441 kts 163°
2026-04-18 05:34 51.30487 -1.08217 35199 ft 440 kts 163°
2026-04-18 05:34 51.24933 -1.04162 35205 ft 439 kts 163°
2026-04-18 05:35 51.19378 -1.00121 35209 ft 439 kts 163°
2026-04-18 05:35 51.13819 -0.96090 35219 ft 439 kts 163°
2026-04-18 05:36 51.08261 -0.92068 35210 ft 439 kts 163°
2026-04-18 05:36 51.02697 -0.88052 35222 ft 439 kts 163°
2026-04-18 05:37 50.97132 -0.84045 35221 ft 439 kts 163°
2026-04-18 05:37 50.91562 -0.80042 35231 ft 439 kts 163°
2026-04-18 05:38 50.85993 -0.76043 35208 ft 441 kts 162°
2026-04-18 05:38 50.81643 -0.72052 35051 ft 448 kts 155°
2026-04-18 05:39 50.79045 -0.69350 35322 ft 443 kts 153°
2026-04-18 05:39 50.76494 -0.66665 35295 ft 442 kts 155°
2026-04-18 05:39 50.72634 -0.62652 35239 ft 445 kts 155°
2026-04-18 05:40 50.68295 -0.58210 35239 ft 449 kts 155°
2026-04-18 05:40 50.63297 -0.53145 35203 ft 451 kts 156°
2026-04-18 05:41 50.59041 -0.48849 35219 ft 452 kts 156°
2026-04-18 05:41 50.53740 -0.43512 35225 ft 452 kts 156°
2026-04-18 05:42 50.52612 -0.42377 35226 ft 452 kts 156°
2026-04-18 05:42 50.47418 -0.37163 35223 ft 452 kts 156°
2026-04-18 05:43 50.42120 -0.31857 35221 ft 451 kts 156°
2026-04-18 05:43 50.36835 -0.26579 35217 ft 449 kts 156°
2026-04-18 05:44 50.31565 -0.21332 35223 ft 448 kts 156°
2026-04-18 05:44 50.26343 -0.16146 35224 ft 447 kts 156°
2026-04-18 05:45 50.22641 -0.12478 35220 ft 447 kts 156°
2026-04-18 05:46 50.19512 -0.09382 35226 ft 447 kts 156°
2026-04-18 05:46 50.14265 -0.04201 35218 ft 446 kts 156°
2026-04-18 05:47 50.08900 0.00416 35204 ft 432 kts 168°
2026-04-18 05:47 50.03193 0.02810 35226 ft 423 kts 175°
2026-04-18 05:48 49.97459 0.04962 35222 ft 425 kts 175°
2026-04-18 05:48 49.91713 0.07177 35216 ft 426 kts 174°
2026-04-18 05:49 49.85956 0.09425 35225 ft 427 kts 174°
2026-04-18 05:49 49.80182 0.11680 35223 ft 429 kts 174°
2026-04-18 05:50 49.74388 0.13936 35198 ft 430 kts 174°
2026-04-18 05:50 49.68585 0.16188 35203 ft 430 kts 174°
2026-04-18 05:51 49.62817 0.18494 35213 ft 432 kts 173°
2026-04-18 05:51 49.57000 0.20867 35208 ft 432 kts 173°
2026-04-18 05:52 49.51188 0.23225 35181 ft 432 kts 173°
2026-04-18 05:52 49.45379 0.25569 35204 ft 431 kts 173°
2026-04-18 05:53 49.39577 0.27901 35217 ft 431 kts 173°
2026-04-18 05:53 49.33781 0.30226 35209 ft 431 kts 173°
2026-04-18 05:54 49.28155 0.32509 35252 ft 430 kts 173°
2026-04-18 05:54 49.23635 0.34415 35220 ft 432 kts 173°
2026-04-18 05:55 49.17922 0.36830 35208 ft 432 kts 173°
2026-04-18 05:55 49.15485 0.37856 35213 ft 433 kts 173°
2026-04-18 05:56 49.09674 0.40293 35211 ft 433 kts 173°
2026-04-18 05:56 49.03855 0.42724 35205 ft 433 kts 173°
2026-04-18 05:57 48.96415 0.45823 35204 ft 434 kts 173°
2026-04-18 05:58 48.94494 0.46621 35203 ft 434 kts 173°
2026-04-18 05:58 48.88659 0.49043 35209 ft 435 kts 173°
2026-04-18 05:59 48.82811 0.51465 35202 ft 436 kts 173°
2026-04-18 05:59 48.78083 0.53414 35202 ft 436 kts 173°
2026-04-18 06:00 48.72356 0.55666 35199 ft 436 kts 174°
2026-04-18 06:00 48.66471 0.57946 35202 ft 436 kts 173°
2026-04-18 06:01 48.60588 0.60235 35198 ft 436 kts 173°
2026-04-18 06:01 48.54709 0.62524 35194 ft 437 kts 173°
2026-04-18 06:02 48.48831 0.64841 35187 ft 437 kts 173°
2026-04-18 06:02 48.42956 0.67241 35165 ft 437 kts 172°
2026-04-18 06:03 48.37088 0.69635 35183 ft 437 kts 172°
2026-04-18 06:03 48.31212 0.72014 35184 ft 437 kts 173°
2026-04-18 06:04 48.25343 0.74381 35190 ft 437 kts 173°
2026-04-18 06:04 48.19469 0.76710 35191 ft 439 kts 173°
2026-04-18 06:04 48.16547 0.77855 35363 ft 439 kts 173°
2026-04-18 06:05 48.13557 0.79028 35627 ft 438 kts 173°
2026-04-18 06:05 48.10615 0.80183 35879 ft 437 kts 173°
2026-04-18 06:05 48.07675 0.81337 36088 ft 437 kts 173°
2026-04-18 06:05 48.04764 0.82477 36252 ft 438 kts 173°
2026-04-18 06:06 48.01819 0.83630 36432 ft 438 kts 173°
2026-04-18 06:06 47.98867 0.84785 36627 ft 438 kts 172°
2026-04-18 06:06 47.95922 0.85936 36789 ft 438 kts 172°
2026-04-18 06:06 47.92967 0.87089 36923 ft 440 kts 172°
2026-04-18 06:07 47.90002 0.88246 37103 ft 439 kts 172°
2026-04-18 06:07 47.84063 0.90556 37172 ft 442 kts 172°
2026-04-18 06:08 47.78123 0.92861 37141 ft 440 kts 172°
2026-04-18 06:08 47.72228 0.95140 37156 ft 437 kts 172°
2026-04-18 06:09 47.66358 0.97403 37169 ft 435 kts 172°
2026-04-18 06:09 47.60511 0.99653 37171 ft 434 kts 172°
2026-04-18 06:10 47.54665 1.01896 37162 ft 434 kts 172°
2026-04-18 06:10 47.48808 1.04140 37175 ft 436 kts 172°
2026-04-18 06:11 47.42917 1.06221 37166 ft 433 kts 178°
2026-04-18 06:11 47.36972 1.06399 37153 ft 427 kts 187°
2026-04-18 06:12 47.31017 1.06171 37181 ft 429 kts 187°
2026-04-18 06:12 47.25037 1.05997 37173 ft 431 kts 186°
2026-04-18 06:13 47.19020 1.05860 37176 ft 433 kts 186°
2026-04-18 06:13 47.13029 1.05730 37172 ft 433 kts 186°
2026-04-18 06:14 47.06998 1.05598 37171 ft 434 kts 186°
2026-04-18 06:14 47.00964 1.05454 37169 ft 433 kts 187°
2026-04-18 06:15 46.94950 1.05199 37164 ft 432 kts 187°
2026-04-18 06:15 46.88955 1.04918 37172 ft 430 kts 187°
2026-04-18 06:16 46.82983 1.04651 37174 ft 429 kts 187°
2026-04-18 06:16 46.77024 1.04392 37183 ft 428 kts 187°
2026-04-18 06:17 46.71080 1.04136 37181 ft 427 kts 187°
2026-04-18 06:17 46.65141 1.03881 37182 ft 427 kts 187°
2026-04-18 06:18 46.59210 1.03626 37183 ft 426 kts 187°
2026-04-18 06:18 46.53277 1.03382 37174 ft 427 kts 185°
2026-04-18 06:19 46.47334 1.04568 37195 ft 436 kts 172°
2026-04-18 06:19 46.41425 1.06620 37179 ft 438 kts 172°
2026-04-18 06:20 46.35535 1.08651 37170 ft 438 kts 172°
2026-04-18 06:20 46.29595 1.10651 37184 ft 439 kts 172°
2026-04-18 06:21 46.23637 1.12634 37184 ft 440 kts 173°
2026-04-18 06:21 46.17666 1.14613 37183 ft 441 kts 173°
2026-04-18 06:22 46.11686 1.16591 37186 ft 441 kts 172°
2026-04-18 06:22 46.05696 1.18569 37205 ft 442 kts 172°
2026-04-18 06:23 45.99698 1.20546 37202 ft 443 kts 172°
2026-04-18 06:23 45.93687 1.22523 37197 ft 443 kts 172°
2026-04-18 06:24 45.87681 1.24494 37211 ft 442 kts 172°
2026-04-18 06:24 45.81683 1.26457 37211 ft 443 kts 172°
2026-04-18 06:25 45.75677 1.28419 37200 ft 443 kts 172°
2026-04-18 06:25 45.69676 1.30375 37188 ft 442 kts 172°
2026-04-18 06:26 45.63668 1.32329 37193 ft 443 kts 172°
2026-04-18 06:26 45.57698 1.34266 37188 ft 443 kts 172°
2026-04-18 06:27 45.51688 1.36213 37182 ft 443 kts 172°
2026-04-18 06:27 45.45668 1.38158 37186 ft 443 kts 172°
2026-04-18 06:28 45.39651 1.40097 37188 ft 444 kts 172°
2026-04-18 06:28 45.33619 1.42037 37178 ft 444 kts 172°
2026-04-18 06:29 45.27584 1.43975 37197 ft 445 kts 172°
2026-04-18 06:29 45.21539 1.45912 37183 ft 446 kts 172°
2026-04-18 06:30 45.15483 1.47849 37178 ft 446 kts 171°
2026-04-18 06:30 45.10448 1.49456 37177 ft 447 kts 171°
2026-04-18 06:31 45.04382 1.51388 37191 ft 447 kts 171°
2026-04-18 06:31 44.98317 1.53315 37180 ft 447 kts 171°
2026-04-18 06:32 44.92239 1.55243 37187 ft 447 kts 171°
2026-04-18 06:32 44.86161 1.57166 37187 ft 448 kts 171°
2026-04-18 06:33 44.80079 1.59086 37184 ft 448 kts 171°
2026-04-18 06:33 44.73988 1.61005 37191 ft 449 kts 171°
2026-04-18 06:34 44.67896 1.62920 37190 ft 449 kts 171°
2026-04-18 06:34 44.61798 1.64834 37187 ft 449 kts 171°
2026-04-18 06:35 44.55746 1.66729 37186 ft 448 kts 171°
2026-04-18 06:35 44.49661 1.68629 37192 ft 448 kts 171°
2026-04-18 06:36 44.43573 1.70527 37196 ft 448 kts 171°
2026-04-18 06:36 44.37483 1.72422 37184 ft 448 kts 171°
2026-04-18 06:37 44.31401 1.74310 37195 ft 448 kts 171°
2026-04-18 06:37 44.25297 1.75954 37194 ft 446 kts 174°
2026-04-18 06:38 44.19174 1.77238 37191 ft 445 kts 175°
2026-04-18 06:38 44.13047 1.78532 37197 ft 445 kts 175°
2026-04-18 06:39 44.06923 1.79870 37200 ft 445 kts 174°
2026-04-18 06:39 44.00805 1.81216 37180 ft 445 kts 174°
2026-04-18 06:40 43.94692 1.82529 37201 ft 444 kts 176°
2026-04-18 06:40 43.88556 1.83244 37206 ft 442 kts 180°
2026-04-18 06:41 43.82411 1.83732 37202 ft 442 kts 180°
2026-04-18 06:41 43.76270 1.84268 37208 ft 442 kts 179°
2026-04-18 06:42 43.70168 1.84849 37219 ft 443 kts 179°
2026-04-18 06:42 43.64020 1.85446 37209 ft 443 kts 179°
2026-04-18 06:43 43.57867 1.86043 37212 ft 443 kts 179°
2026-04-18 06:43 43.51706 1.86638 37209 ft 444 kts 179°
2026-04-18 06:44 43.45549 1.87230 37202 ft 444 kts 179°
2026-04-18 06:44 43.39376 1.87823 37185 ft 444 kts 179°
2026-04-18 06:45 43.33215 1.88413 37213 ft 444 kts 179°
2026-04-18 06:45 43.27043 1.89007 37210 ft 445 kts 179°
2026-04-18 06:46 43.20867 1.89601 37201 ft 445 kts 179°
2026-04-18 06:46 43.14679 1.90194 37203 ft 446 kts 179°
2026-04-18 06:47 43.08490 1.90787 37207 ft 446 kts 179°
2026-04-18 06:47 43.02292 1.91379 37189 ft 446 kts 179°
2026-04-18 06:48 42.96098 1.91969 37199 ft 447 kts 179°
2026-04-18 06:48 42.89896 1.92560 37209 ft 447 kts 179°
2026-04-18 06:49 42.83725 1.93146 37207 ft 448 kts 179°
2026-04-18 06:49 42.77505 1.93735 37210 ft 448 kts 179°
2026-04-18 06:50 42.71274 1.94352 37200 ft 450 kts 175°
2026-04-18 06:50 42.68207 1.95297 37207 ft 455 kts 163°
2026-04-18 06:50 42.65316 1.97071 37183 ft 459 kts 152°
2026-04-18 06:51 42.60250 2.02405 37190 ft 463 kts 142°
2026-04-18 06:51 42.55356 2.08073 37189 ft 462 kts 142°
2026-04-18 06:52 42.50426 2.13646 37198 ft 461 kts 143°
2026-04-18 06:52 42.45472 2.19175 37180 ft 462 kts 143°
2026-04-18 06:53 42.40409 2.24524 37186 ft 461 kts 147°
2026-04-18 06:53 42.35159 2.29481 37169 ft 461 kts 148°
2026-04-18 06:54 42.29882 2.34395 37180 ft 461 kts 148°
2026-04-18 06:54 42.24618 2.39339 37185 ft 461 kts 147°
2026-04-18 06:55 42.19366 2.44299 37184 ft 461 kts 147°
2026-04-18 06:55 42.14110 2.49260 37165 ft 461 kts 147°
2026-04-18 06:56 42.08884 2.54184 37166 ft 462 kts 147°
2026-04-18 06:56 42.03666 2.59088 37162 ft 462 kts 147°
2026-04-18 06:57 41.98423 2.64005 37158 ft 463 kts 147°
2026-04-18 06:57 41.90498 2.71418 37152 ft 463 kts 147°
2026-04-18 06:58 41.85476 2.76104 37160 ft 463 kts 147°
2026-04-18 06:58 41.80182 2.81034 37156 ft 463 kts 147°
2026-04-18 06:59 41.74887 2.85955 37155 ft 464 kts 147°
2026-04-18 06:59 41.69595 2.90863 37130 ft 457 kts 147°
2026-04-18 07:00 41.67026 2.93246 37122 ft 442 kts 147°
2026-04-18 07:00 41.64541 2.95549 37137 ft 429 kts 147°
2026-04-18 07:00 41.59669 3.00048 37166 ft 431 kts 147°
2026-04-18 07:01 41.54679 3.04642 37171 ft 440 kts 147°
2026-04-18 07:01 41.49610 3.09304 37149 ft 445 kts 147°
2026-04-18 07:02 41.44538 3.13965 36604 ft 442 kts 147°
2026-04-18 07:02 41.41987 3.16305 35783 ft 449 kts 147°
2026-04-18 07:02 41.39388 3.18684 34916 ft 458 kts 147°
2026-04-18 07:03 41.36756 3.21092 34346 ft 460 kts 147°
2026-04-18 07:03 41.34130 3.23495 33956 ft 455 kts 147°
2026-04-18 07:03 41.31538 3.25864 33596 ft 450 kts 147°
2026-04-18 07:03 41.28968 3.28212 33186 ft 446 kts 147°
2026-04-18 07:04 41.26416 3.30540 32597 ft 446 kts 147°
2026-04-18 07:04 41.23832 3.32892 31538 ft 453 kts 147°
2026-04-18 07:04 41.21224 3.35264 30600 ft 455 kts 147°
2026-04-18 07:04 41.18615 3.37635 29577 ft 455 kts 147°
2026-04-18 07:05 41.16000 3.40010 28522 ft 455 kts 147°
2026-04-18 07:05 41.13389 3.42380 27501 ft 454 kts 146°
2026-04-18 07:05 41.10790 3.44735 26715 ft 448 kts 146°
2026-04-18 07:05 41.08251 3.47036 26183 ft 437 kts 146°
2026-04-18 07:06 41.05779 3.49273 25758 ft 424 kts 146°
2026-04-18 07:06 41.03405 3.51419 25348 ft 413 kts 146°
2026-04-18 07:06 41.01067 3.53530 24955 ft 402 kts 146°
2026-04-18 07:06 40.98785 3.55589 24576 ft 392 kts 146°
2026-04-18 07:07 40.96561 3.57593 24199 ft 383 kts 146°
2026-04-18 07:07 40.94384 3.59555 23850 ft 375 kts 146°
2026-04-18 07:07 40.92250 3.61474 23441 ft 367 kts 145°
2026-04-18 07:07 40.90157 3.63356 23014 ft 360 kts 145°
2026-04-18 07:08 40.88110 3.65195 22694 ft 353 kts 145°
2026-04-18 07:08 40.86081 3.67018 22357 ft 353 kts 145°
2026-04-18 07:08 40.84038 3.68851 22019 ft 360 kts 145°
2026-04-18 07:08 40.81921 3.70751 21680 ft 374 kts 145°
2026-04-18 07:09 40.79764 3.72684 21293 ft 375 kts 145°
2026-04-18 07:09 40.77609 3.74613 20916 ft 373 kts 144°
2026-04-18 07:09 40.75461 3.76533 20546 ft 371 kts 144°
2026-04-18 07:09 40.73334 3.78435 20183 ft 369 kts 144°
2026-04-18 07:10 40.71208 3.80333 19825 ft 368 kts 144°
2026-04-18 07:10 40.69091 3.82222 19458 ft 366 kts 144°
2026-04-18 07:10 40.66985 3.84100 19100 ft 365 kts 144°
2026-04-18 07:10 40.64882 3.85975 18736 ft 365 kts 143°
2026-04-18 07:11 40.62784 3.87843 18352 ft 364 kts 143°
2026-04-18 07:11 40.60691 3.89705 17959 ft 363 kts 143°
2026-04-18 07:11 40.58605 3.91560 17585 ft 361 kts 143°
2026-04-18 07:11 40.56533 3.93402 17234 ft 358 kts 143°
2026-04-18 07:12 40.54475 3.95230 16878 ft 356 kts 143°
2026-04-18 07:12 40.52428 3.97045 16533 ft 354 kts 143°
2026-04-18 07:12 40.50384 3.98831 16185 ft 352 kts 147°
2026-04-18 07:12 40.48109 4.00016 15877 ft 352 kts 164°
2026-04-18 07:13 40.45754 4.00815 15588 ft 348 kts 164°
2026-04-18 07:13 40.43414 4.01606 15294 ft 346 kts 164°
2026-04-18 07:13 40.41089 4.02391 14993 ft 345 kts 166°
2026-04-18 07:13 40.38700 4.02637 14621 ft 346 kts 185°
2026-04-18 07:14 40.36318 4.02240 14326 ft 344 kts 188°
2026-04-18 07:14 40.33990 4.01774 14000 ft 343 kts 189°
2026-04-18 07:14 40.31637 4.01297 13654 ft 341 kts 188°
2026-04-18 07:14 40.29303 4.00839 13325 ft 339 kts 188°
2026-04-18 07:15 40.26978 4.00398 13008 ft 336 kts 188°
2026-04-18 07:15 40.24667 3.99972 12697 ft 334 kts 188°
2026-04-18 07:15 40.22375 3.99557 12396 ft 331 kts 188°
2026-04-18 07:15 40.20100 3.99149 12094 ft 329 kts 188°
2026-04-18 07:16 40.17838 3.98747 11790 ft 327 kts 188°
2026-04-18 07:16 40.15590 3.98348 11499 ft 325 kts 188°
2026-04-18 07:16 40.13354 3.97953 11207 ft 323 kts 188°
2026-04-18 07:16 40.11130 3.97560 10914 ft 322 kts 188°
2026-04-18 07:17 40.08916 3.97169 10615 ft 320 kts 188°
2026-04-18 07:17 40.06713 3.96780 10328 ft 317 kts 188°
2026-04-18 07:17 40.04551 3.96400 10097 ft 307 kts 188°
2026-04-18 07:17 40.02482 3.96035 9771 ft 300 kts 188°
2026-04-18 07:18 40.00434 3.95675 9489 ft 293 kts 188°
2026-04-18 07:18 39.98431 3.95322 9187 ft 289 kts 188°
2026-04-18 07:18 39.96426 3.94969 8936 ft 292 kts 188°
2026-04-18 07:18 39.94402 3.94613 8656 ft 294 kts 188°
2026-04-18 07:19 39.92381 3.94259 8386 ft 293 kts 188°
2026-04-18 07:19 39.90369 3.93897 8112 ft 291 kts 189°
2026-04-18 07:19 39.88366 3.93528 7843 ft 290 kts 187°
2026-04-18 07:19 39.86353 3.93335 7579 ft 288 kts 181°
2026-04-18 07:20 39.84360 3.93407 7311 ft 287 kts 175°
2026-04-18 07:20 39.82370 3.93760 6934 ft 290 kts 168°
2026-04-18 07:20 39.80439 3.94367 6655 ft 289 kts 163°
2026-04-18 07:20 39.78520 3.95220 6372 ft 287 kts 157°
2026-04-18 07:21 39.76722 3.96260 6090 ft 285 kts 152°
2026-04-18 07:21 39.74996 3.97506 5826 ft 283 kts 147°
2026-04-18 07:21 39.73374 3.98939 5564 ft 280 kts 141°
2026-04-18 07:21 39.71876 4.00537 5306 ft 278 kts 136°
2026-04-18 07:22 39.70505 4.02287 5056 ft 275 kts 131°
2026-04-18 07:22 39.69270 4.04168 4813 ft 272 kts 126°
2026-04-18 07:22 39.68180 4.06154 4549 ft 269 kts 121°
2026-04-18 07:22 39.67232 4.08238 4297 ft 267 kts 116°
2026-04-18 07:23 39.66686 4.09659 4143 ft 264 kts 112°
2026-04-18 07:23 39.66030 4.11868 3880 ft 261 kts 98°
2026-04-18 07:23 39.66205 4.14137 3560 ft 250 kts 61°
2026-04-18 07:23 39.67192 4.15837 3475 ft 225 kts 39°
2026-04-18 07:24 39.68434 4.16942 3148 ft 214 kts 26°
2026-04-18 07:24 39.69727 4.17775 2939 ft 200 kts 24°
2026-04-18 07:24 39.70944 4.18539 2723 ft 189 kts 23°
2026-04-18 07:24 39.72154 4.19025 2486 ft 178 kts
2026-04-18 07:25 39.73329 4.19240 2282 ft 164 kts
2026-04-18 07:25 39.74412 4.19454 2135 ft 152 kts
2026-04-18 07:25 39.75446 4.19661 1925 ft 149 kts
2026-04-18 07:25 39.76464 4.19866 1738 ft 147 kts
2026-04-18 07:26 39.77483 4.20072 1626 ft 150 kts
2026-04-18 07:26 39.78517 4.20281 1534 ft 151 kts
2026-04-18 07:26 39.79567 4.20494 1398 ft 155 kts
2026-04-18 07:26 39.80624 4.20708 1221 ft 153 kts
2026-04-18 07:27 39.81683 4.20922 999 ft 155 kts
2026-04-18 07:27 39.82741 4.21137 812 ft 152 kts
2026-04-18 07:27 39.83796 4.21337 643 ft 156 kts
2026-04-18 07:27 39.84863 4.21575 397 ft 155 kts
2026-04-18 07:28 39.85891 4.21787 302 ft 140 kts
2026-04-18 07:28 39.86588 4.21932 303 ft 60 kts
2026-04-18 07:28 39.86852 4.22074 302 ft 31 kts 37°
2026-04-18 07:28 39.86932 4.22205 299 ft 15 kts 116°
2026-04-18 07:29 39.86835 4.22219 301 ft 14 kts 188°
2026-04-18 07:29 39.86737 4.22200 296 ft 14 kts 188°
2026-04-18 07:29 39.86644 4.22181 294 ft 13 kts 189°
2026-04-18 07:29 39.86557 4.22187 294 ft 13 kts 139°
2026-04-18 07:30 39.86528 4.22301 288 ft 13 kts 125°
2026-04-18 07:30 39.86478 4.22336 291 ft 6 kts 111°
2026-04-18 07:30 39.86470 4.22386 285 ft 4 kts 98°
2026-04-18 07:30 39.86469 4.22396 285 ft 1 kts 100°
2026-04-18 07:31 39.86469 4.22397 285 ft 0 kts 99°